sat.trackr.live / text

‹ back to catalog

TOMORROW-S11

NORAD 67399 · 2026-004AN

PAYLOAD ACTIVE UNKNOWN

§ Identity

Operator
Country
US
Launch date
2026-01-11
Launch site
AFWTR
Launch vehicle
Mass (kg)
RCS (m²)

External: N2YO · Heavens-Above · Gunter

§ Orbital elements

Epoch: 2026-05-24T23:28:15.521088Z

Period
94.78 min
Inclination
97.4567°
Eccentricity
0.0009201
Mean motion
15.19278793 rev/d
Perigee alt
501.7 km
Apogee alt
514.4 km
Semi-major
6,886.2 km
B*
1.7801e-4
RAAN
144.5247°
Arg perigee
71.2055°
Mean anomaly
289.0176°
Rev number
2,024

§ Raw data

TOMORROW-S111 67399U 26004AN  26144.97795742  .00003690  00000+0  17801-3 0  99902 67399  97.4567 144.5247 0009201  71.2055 289.0176 15.19278793 20246

JSON: /api/v1/satellites/67399 · /tle

For live sub-satellite position, see the globe view (requires WebGL).

§ Visibility from observer

Set your observer location to see the next 7 days of passes ≥ 10°. The values pass through the URL so the page stays shareable.

No JS? Fill the form by hand. The geolocation button needs JavaScript.